Date,TemperatureHighF,TemperatureAvgF,TemperatureLowF,DewpointHighF,DewpointAvgF,DewpointLowF,HumidityHigh,HumidityAvg,HumidityLow,PressureMaxIn,PressureMinIn,WindSpeedMaxMPH,WindSpeedAvgMPH,GustSpeedMaxMPH,PrecipitationSumIn
2013-1-1,56.3,50.4,44.9,55.0,47.8,40.0,96,90,83,30.20,29.95,8,2,16,0.10
2013-1-2,44.8,41.1,39.1,41.0,36.3,34.0,85,83,81,30.30,30.18,8,2,12,0.00
2013-1-3,51.2,43.3,35.7,39.0,34.6,32.0,88,72,52,30.41,30.29,6,2,12,0.00
2013-1-4,47.8,44.9,42.7,40.0,37.8,35.0,89,76,69,30.50,30.34,6,1,8,0.05
2013-1-5,45.6,43.8,41.4,44.0,41.9,39.0,95,93,77,30.38,30.25,5,0,5,0.26
2013-1-6,55.7,45.2,34.4,45.0,40.8,32.0,95,85,59,30.35,30.25,5,1,8,0.00
2013-1-7,54.8,42.2,29.8,44.0,37.3,28.0,97,84,58,30.34,30.11,7,1,11,0.01
2013-1-8,59.1,53.3,44.5,59.0,51.9,42.0,98,94,86,30.11,29.92,8,1,12,1.07
2013-1-9,63.3,61.4,58.6,63.0,60.9,58.0,98,98,97,30.07,29.89,14,1,19,0.92
2013-1-10,68.1,61.2,51.4,64.0,58.2,50.0,98,90,61,30.05,29.93,5,1,14,0.04
2013-1-11,70.5,56.5,43.0,63.0,52.3,42.0,98,87,59,30.02,29.87,6,0,9,0.01
2013-1-12,75.3,70.9,64.4,70.0,68.4,63.0,98,92,82,29.89,29.70,8,3,20,0.04
2013-1-13,70.8,45.8,41.2,69.0,42.6,38.0,95,89,80,30.16,29.73,11,3,15,0.47
2013-1-14,43.3,38.8,34.7,40.0,36.1,33.0,97,90,79,30.26,30.10,12,4,17,0.23
2013-1-15,39.1,34.8,32.9,38.0,33.2,31.0,97,94,90,30.15,30.03,9,3,15,0.17
2013-1-16,48.1,40.2,35.1,39.0,32.6,25.0,95,77,42,30.24,30.12,8,2,13,0.00
2013-1-17,58.4,41.0,26.7,42.0,32.9,25.0,95,76,44,30.46,30.22,4,0,8,0.00
2013-1-18,58.2,42.8,30.3,42.0,35.1,25.0,97,77,29,30.54,30.35,3,0,8,0.01
2013-1-19,62.4,46.2,35.7,46.0,39.2,34.0,97,79,42,30.35,30.19,7,1,9,0.00
2013-1-20,63.9,47.8,36.6,54.0,43.9,35.0,97,87,62,30.27,30.11,4,0,6,0.01
2013-1-21,65.3,52.0,39.3,56.0,48.0,38.0,97,87,69,30.22,30.13,3,0,6,0.01
2013-1-22,67.0,50.6,40.1,52.0,43.7,35.0,94,78,55,30.34,30.21,5,1,8,0.00
2013-1-23,72.9,58.6,46.1,58.0,52.1,44.0,97,81,50,30.33,30.19,9,1,13,0.00
2013-1-24,69.4,62.9,54.7,64.0,60.2,53.0,97,91,80,30.26,30.12,7,2,14,0.00
2013-1-25,75.9,66.9,61.4,63.0,60.3,58.0,91,80,59,30.16,30.03,15,3,16,0.00
2013-1-26,75.0,64.4,56.0,64.0,58.9,55.0,96,83,57,30.17,30.07,8,1,13,0.00
2013-1-27,74.6,65.6,54.7,65.0,60.7,54.0,96,85,69,30.14,30.02,7,2,16,0.01
2013-1-28,77.4,69.8,64.0,67.0,64.3,62.0,95,84,62,30.11,29.96,10,2,20,0.00
2013-1-29,75.3,69.9,57.9,70.0,66.6,56.0,96,89,68,29.95,29.56,16,4,25,0.53
2013-1-30,57.9,50.9,35.0,56.0,37.8,31.0,94,63,44,30.18,29.71,11,3,24,0.00
2013-1-31,63.5,46.7,31.2,36.0,31.0,26.0,89,60,24,30.28,30.17,12,2,14,0.00
2013-2-1,65.4,53.9,42.0,44.0,40.9,36.0,89,63,40,30.36,30.21,8,1,9,0.00
2013-2-2,72.1,57.1,46.7,55.0,48.9,43.0,91,75,52,30.26,30.14,9,1,12,0.00
2013-2-3,68.1,52.0,37.9,48.0,39.8,31.0,96,69,27,30.31,30.06,7,0,8,0.00
2013-2-4,62.3,54.7,47.9,59.0,51.5,41.0,96,89,74,30.07,29.85,2,0,5,0.04
2013-2-5,71.5,61.8,56.0,64.0,58.9,54.0,98,90,66,30.01,29.88,5,0,8,0.02
2013-2-6,63.7,59.7,55.8,61.0,58.4,54.0,97,95,92,30.05,29.90,4,0,8,0.05
2013-2-7,64.9,60.0,56.1,61.0,57.8,55.0,97,92,82,29.97,29.88,4,0,8,0.00
2013-2-8,59.5,56.5,49.0,58.0,52.3,47.0,97,86,74,30.18,29.95,7,2,9,0.00
2013-2-9,63.2,54.5,46.3,61.0,51.3,43.0,93,89,78,30.16,29.90,6,2,11,0.01
2013-2-10,70.0,64.2,58.3,67.0,60.9,55.0,95,89,66,29.98,29.75,12,2,18,1.08
2013-2-11,58.4,53.2,50.8,57.0,49.9,48.0,95,89,79,30.11,29.99,8,2,15,0.18
2013-2-12,55.4,53.7,50.5,55.0,52.0,47.0,97,94,88,30.02,29.80,5,1,11,0.76
2013-2-13,53.7,46.5,35.2,47.0,41.2,33.0,91,82,64,30.12,29.92,6,2,10,0.00
2013-2-14,61.8,44.9,31.3,47.0,37.1,30.0,97,78,40,30.15,30.04,5,0,6,0.01
2013-2-15,61.1,47.4,35.2,45.0,38.6,31.0,97,74,48,30.31,30.10,9,2,16,0.01
2013-2-16,55.9,44.9,34.6,35.0,29.4,23.0,85,57,36,30.41,30.24,8,2,13,0.00
2013-2-17,69.5,51.7,34.4,46.0,38.7,31.0,92,66,33,30.24,30.05,14,2,22,0.00
2013-2-18,72.4,60.6,52.8,63.0,55.7,46.0,96,84,66,30.05,29.82,9,2,21,0.43
2013-2-19,63.1,52.4,44.8,47.0,38.9,29.0,87,64,28,30.27,30.05,7,2,12,0.00
2013-2-20,56.1,52.0,48.0,42.0,37.2,32.0,76,58,41,30.20,29.87,9,2,13,0.00
2013-2-21,71.9,60.1,50.3,66.0,54.6,43.0,96,83,60,29.86,29.63,9,2,22,0.90
2013-2-22,54.4,51.1,47.8,49.0,47.6,45.0,96,88,79,30.02,29.86,7,2,13,0.00
2013-2-23,63.8,51.8,43.1,49.0,44.4,40.0,90,77,48,30.02,29.89,5,1,13,0.00
2013-2-24,68.0,54.0,39.0,50.0,45.5,37.0,95,75,49,29.97,29.68,9,2,12,0.00
2013-2-25,71.2,59.9,46.9,65.0,47.0,31.0,96,67,29,29.68,29.42,16,3,30,0.04
2013-2-26,59.8,49.9,43.0,41.0,37.0,33.0,85,62,44,29.92,29.64,13,3,25,0.00
2013-2-27,65.8,50.3,36.2,48.0,37.4,30.0,96,65,37,30.13,29.90,7,2,12,0.00
2013-2-28,56.6,46.8,38.0,35.0,31.6,29.0,79,57,35,30.26,30.12,8,2,16,0.00
2013-3-1,58.8,45.7,32.7,36.0,32.2,28.0,85,62,33,30.26,30.12,9,2,14,0.00
2013-3-2,50.1,41.1,30.1,34.0,28.1,24.0,84,62,37,30.35,30.21,7,2,15,0.00
2013-3-3,67.3,47.1,27.2,42.0,31.9,24.0,92,62,31,30.26,29.99,9,2,14,0.00
2013-3-4,78.8,63.0,47.5,61.0,54.0,42.0,95,74,48,29.99,29.71,19,4,23,0.00
2013-3-5,65.6,59.9,49.2,61.0,42.7,29.0,90,56,30,30.30,29.75,12,3,18,0.00
2013-3-6,62.4,49.0,40.5,37.0,30.1,23.0,81,51,22,30.41,30.22,7,2,13,0.00
2013-3-7,64.7,49.9,35.2,42.0,37.6,32.0,93,67,35,30.30,30.16,7,1,11,0.00
2013-3-8,71.6,56.9,42.4,57.0,48.6,38.0,94,75,52,30.25,30.08,8,1,13,0.00
2013-3-9,73.8,63.8,55.0,63.0,58.0,51.0,92,82,65,30.08,29.80,9,2,17,0.00
2013-3-10,65.2,59.3,48.7,63.0,53.7,38.0,95,83,55,30.02,29.69,6,2,18,0.60
2013-3-11,59.1,49.1,37.6,38.0,34.3,31.0,81,59,37,30.10,29.96,7,2,15,0.00
2013-3-12,66.0,47.6,31.4,45.0,35.0,29.0,96,67,30,30.26,30.06,5,1,7,0.00
2013-3-13,68.0,52.8,38.6,41.0,37.4,30.0,94,62,25,30.44,30.26,8,1,11,0.00
2013-3-14,74.3,55.2,37.9,47.0,41.5,36.0,95,65,34,30.41,30.23,8,2,12,0.00
2013-3-15,79.1,63.2,46.4,55.0,49.1,43.0,94,64,37,30.26,30.01,8,3,18,0.00
2013-3-16,80.1,66.7,57.1,60.0,57.1,55.0,94,74,44,30.02,29.80,15,3,18,0.00
2013-3-17,81.1,68.4,57.3,65.0,61.2,56.0,96,80,52,29.85,29.66,11,3,16,0.00
2013-3-18,84.3,72.7,64.6,68.0,63.9,55.0,94,76,51,29.92,29.71,9,2,15,0.00
2013-3-19,73.6,64.0,53.9,56.0,48.0,41.0,80,58,41,30.03,29.91,8,3,14,0.00
2013-3-20,69.7,57.2,48.4,49.0,43.7,36.0,94,64,29,30.23,29.99,8,3,16,0.26
2013-3-21,72.6,57.7,44.9,55.0,45.3,37.0,88,66,38,30.04,29.70,11,2,21,0.00
2013-3-22,80.6,67.1,59.5,68.0,61.4,54.0,90,82,66,29.72,29.64,6,1,10,0.00
2013-3-23,69.5,60.5,55.4,64.0,57.0,54.0,95,88,79,29.78,29.58,6,2,9,0.01
2013-3-24,58.5,54.1,47.8,57.0,42.0,33.0,95,66,42,30.12,29.63,10,3,19,0.00
2013-3-25,59.0,48.7,38.3,36.0,28.2,24.0,68,48,28,30.36,30.12,12,3,16,0.00
2013-3-26,57.6,46.4,29.7,32.0,25.8,23.0,86,48,26,30.48,30.31,6,2,14,0.00
2013-3-27,69.8,50.7,30.4,43.0,33.6,28.0,89,58,27,30.40,30.16,7,2,16,0.00
2013-3-28,71.4,59.5,51.4,56.0,49.8,43.0,85,71,54,30.29,30.16,4,1,10,0.00
2013-3-29,76.1,64.5,53.7,61.0,57.2,51.0,95,79,54,30.23,30.10,8,1,12,0.00
2013-3-30,79.1,67.3,59.3,65.0,60.5,57.0,95,80,52,30.13,29.93,8,2,15,0.25
2013-3-31,74.0,65.0,58.8,66.0,61.8,57.0,95,89,68,30.01,29.86,11,2,19,0.76
2013-4-1,78.1,66.0,56.4,63.0,58.5,55.0,97,79,51,30.07,29.93,7,1,14,0.00
2013-4-2,76.9,64.7,56.9,67.0,60.3,55.0,95,86,61,30.04,29.89,7,1,10,0.42
2013-4-3,63.8,51.3,47.0,63.0,49.2,45.0,96,92,89,30.09,29.88,10,3,18,0.51
2013-4-4,50.2,47.4,45.0,45.0,44.0,43.0,94,88,79,30.15,30.02,6,2,12,0.00
2013-4-5,70.2,55.1,42.4,53.0,46.1,40.0,94,74,44,30.23,30.07,5,1,7,0.01
2013-4-6,76.3,59.9,45.9,57.0,51.9,44.0,96,77,49,30.09,29.92,9,2,18,0.00
2013-4-7,78.8,67.7,57.1,62.0,59.2,55.0,95,75,55,30.00,29.83,7,2,19,0.00
2013-4-8,80.8,70.4,64.3,66.0,63.5,62.0,94,80,56,29.87,29.76,10,2,17,0.00
2013-4-9,84.3,74.4,67.1,72.0,67.3,64.0,89,79,58,29.81,29.72,12,3,20,0.00
2013-4-10,80.2,64.2,48.1,72.0,60.1,47.0,95,87,74,29.87,29.69,13,3,20,0.89
2013-4-11,66.2,51.4,42.7,51.0,45.1,40.0,95,81,46,29.90,29.76,7,2,18,0.40
2013-4-12,74.3,55.6,40.7,55.0,46.6,39.0,97,76,32,30.01,29.86,3,0,7,0.01
2013-4-13,78.0,64.1,45.3,56.0,50.4,44.0,95,66,33,30.00,29.80,9,1,12,0.00
2013-4-14,82.5,66.1,51.8,65.0,58.3,50.0,95,78,48,29.79,29.62,7,1,10,0.00
2013-4-15,86.6,74.3,63.0,72.0,67.4,61.0,96,80,56,29.84,29.71,11,2,13,0.00
2013-4-16,84.7,76.3,71.8,73.0,71.3,69.0,96,85,64,29.94,29.82,6,2,14,0.00
2013-4-17,83.4,76.6,72.5,74.0,71.3,70.0,92,84,68,29.95,29.76,7,2,17,0.00
2013-4-18,77.5,65.1,50.5,71.0,61.2,46.0,94,87,81,30.05,29.68,10,3,18,0.58
2013-4-19,62.0,52.0,41.2,45.0,37.9,34.0,91,61,36,30.21,30.05,15,3,18,0.00
2013-4-20,70.6,54.1,36.6,50.0,40.1,35.0,95,65,32,30.25,30.05,7,1,16,0.00
2013-4-21,73.1,58.1,42.4,53.0,46.8,41.0,94,70,39,30.20,30.06,8,1,13,0.00
2013-4-22,78.8,62.8,45.8,58.0,51.3,44.0,94,70,38,30.12,29.91,5,1,12,0.00
2013-4-23,79.9,68.2,55.2,68.0,62.5,53.0,95,83,61,30.00,29.87,7,2,11,0.00
2013-4-24,70.8,56.7,47.4,68.0,48.0,43.0,90,74,53,30.23,29.96,9,3,17,0.00
2013-4-25,71.2,60.4,53.4,51.0,47.6,45.0,83,65,41,30.32,30.19,9,2,12,0.00
2013-4-26,79.0,68.9,57.8,69.0,60.0,48.0,89,74,59,30.22,30.04,8,2,11,0.00
2013-4-27,83.3,71.5,65.6,72.0,67.3,64.0,96,87,61,30.11,29.92,9,1,12,0.49
2013-4-28,83.0,71.3,64.1,67.0,63.8,61.0,97,79,49,29.99,29.84,5,1,7,0.01
2013-4-29,81.4,69.2,56.5,69.0,63.1,55.0,96,82,59,29.94,29.80,7,1,8,0.00
2013-4-30,81.4,69.0,60.5,69.0,64.8,59.0,97,87,60,29.85,29.73,7,1,13,0.42
2013-5-1,80.7,71.1,65.6,70.0,66.8,65.0,98,87,63,29.89,29.80,5,1,12,0.00
2013-5-2,73.6,64.8,49.2,67.0,60.6,46.0,93,86,75,30.15,29.88,12,3,16,0.00
2013-5-3,64.2,52.6,43.7,45.0,40.4,35.0,92,67,34,30.16,30.02,12,4,21,0.00
2013-5-4,76.3,59.0,40.1,47.0,40.7,37.0,89,56,27,30.05,29.82,10,2,19,0.00
2013-5-5,66.4,57.2,48.2,49.0,43.4,39.0,89,61,44,30.08,29.95,7,2,13,0.00
2013-5-6,76.2,60.0,44.0,59.0,50.7,42.0,94,74,45,30.08,29.94,8,1,8,0.00
2013-5-7,81.5,68.2,56.0,61.0,56.9,54.0,94,70,39,30.04,29.93,6,1,11,0.00
2013-5-8,83.9,71.0,57.4,65.0,61.0,56.0,95,73,48,30.04,29.93,6,1,18,0.00
2013-5-9,77.7,70.0,64.9,71.0,67.0,63.0,96,90,80,30.01,29.86,7,1,14,0.90
2013-5-10,77.2,70.0,65.8,70.0,67.1,65.0,97,91,74,29.99,29.84,5,1,10,0.57
2013-5-11,80.3,71.8,63.7,69.0,63.8,60.0,96,77,53,30.09,29.91,7,2,14,0.06
2013-5-12,75.0,64.6,53.7,60.0,54.4,50.0,96,72,44,30.19,30.07,7,2,12,0.01
2013-5-13,81.4,65.4,49.1,56.0,51.6,46.0,95,66,31,30.27,30.14,6,1,10,0.00
2013-5-14,85.0,69.7,55.7,64.0,56.5,51.0,95,67,37,30.22,30.06,9,2,14,0.00
2013-5-15,73.3,67.1,62.6,69.0,64.4,56.0,97,91,74,30.12,29.90,6,1,12,0.15
2013-5-16,83.5,73.6,64.7,72.0,68.0,64.0,96,83,63,29.92,29.79,8,3,17,0.05
2013-5-17,87.8,77.5,71.2,77.0,71.8,69.0,94,83,66,29.94,29.82,7,2,15,0.01
2013-5-18,90.5,79.5,71.0,75.0,71.8,69.0,95,78,58,29.94,29.86,7,2,15,0.00
2013-5-19,89.6,79.5,71.3,73.0,70.7,69.0,93,76,51,29.89,29.78,11,3,20,0.00
2013-5-20,87.9,78.8,72.9,77.0,73.0,71.0,94,83,63,29.89,29.76,8,2,14,0.00
2013-5-21,88.7,79.1,66.8,74.0,71.8,64.0,95,79,58,29.92,29.67,17,3,19,0.08
2013-5-22,84.8,73.8,65.9,75.0,69.8,65.0,97,88,67,29.91,29.75,5,1,15,0.15
2013-5-23,85.8,77.4,71.2,78.0,72.9,69.0,97,86,70,30.04,29.90,5,1,10,0.02
2013-5-24,86.8,76.4,70.3,76.0,72.1,68.0,98,87,66,30.14,30.00,5,1,10,0.02
2013-5-25,86.9,75.7,70.0,76.0,71.3,68.0,97,87,62,30.14,30.05,7,1,13,0.01
2013-5-26,82.6,74.5,68.6,76.0,71.7,68.0,98,91,77,30.10,29.98,4,0,9,0.03
2013-5-27,87.7,76.9,67.9,72.0,69.6,67.0,98,80,55,30.04,29.89,8,2,13,0.02
2013-5-28,88.1,78.3,70.8,73.0,69.6,67.0,96,76,51,29.94,29.84,14,2,14,0.00
2013-5-29,83.9,76.7,71.4,73.0,71.5,69.0,95,84,68,29.89,29.83,7,2,16,0.01
2013-5-30,87.5,81.7,75.2,77.0,74.5,73.0,92,79,66,29.87,29.78,7,2,16,0.01
2013-5-31,92.0,81.7,76.0,78.0,75.4,74.0,94,82,60,29.88,29.78,7,2,13,0.00
2013-6-1,92.7,83.2,76.6,78.0,75.7,74.0,92,79,60,29.87,29.79,10,2,13,0.00
2013-6-2,82.1,73.5,66.8,75.0,69.2,65.0,97,87,67,29.99,29.85,5,2,17,0.02
2013-6-3,85.6,74.9,63.9,72.0,66.8,63.0,96,78,54,29.95,29.82,4,1,7,0.06
2013-6-4,90.0,79.3,68.3,75.0,70.4,66.0,94,76,51,29.91,29.79,5,1,9,0.02
2013-6-5,91.6,80.9,71.1,77.0,73.6,69.0,96,80,58,29.89,29.68,3,0,9,0.00
2013-6-6,82.8,74.1,69.3,78.0,71.7,68.0,96,92,76,29.86,29.71,9,2,14,0.00
2013-6-7,83.2,73.9,66.9,70.0,67.1,63.0,97,81,52,29.91,29.83,5,1,8,0.01
2013-6-8,86.8,75.8,64.7,74.0,68.1,63.0,97,79,54,29.91,29.80,6,1,8,0.00
2013-6-9,87.7,75.9,69.5,77.0,71.4,68.0,96,86,66,29.93,29.82,6,1,20,0.00
2013-6-10,90.1,78.9,69.8,77.0,72.9,69.0,97,83,60,29.97,29.90,5,1,9,0.00
2013-6-11,92.8,82.1,71.7,80.0,75.5,70.0,96,81,59,30.03,29.94,6,1,11,0.00
2013-6-12,92.4,82.7,73.0,78.0,75.2,72.0,97,80,54,30.04,29.93,6,1,10,0.00
2013-6-13,93.5,83.8,75.1,80.0,76.3,74.0,96,79,58,30.04,29.87,5,1,9,0.00
2013-6-14,93.9,84.9,75.7,81.0,76.6,74.0,94,78,56,29.95,29.83,6,1,7,0.00
2013-6-15,91.4,86.6,77.8,81.0,78.4,76.0,94,77,65,29.96,29.86,6,1,13,0.00
2013-6-16,92.2,82.8,74.2,78.0,74.8,72.0,97,79,53,30.01,29.88,5,1,10,0.00
2013-6-17,91.7,83.3,75.6,78.0,75.5,73.0,95,78,56,29.98,29.84,11,2,12,0.00
2013-6-18,89.5,79.5,73.7,78.0,74.8,71.0,95,86,66,29.95,29.87,8,2,12,0.00
2013-6-19,86.0,77.7,71.1,78.0,73.9,70.0,97,89,67,29.98,29.91,5,1,8,0.00
2013-6-20,92.4,82.2,73.4,78.0,75.4,72.0,97,81,58,30.06,29.95,7,1,8,0.00
2013-6-21,91.4,82.3,73.3,78.0,75.2,72.0,96,80,59,30.08,29.98,6,1,7,0.00
2013-6-22,92.3,82.3,72.4,80.0,74.7,71.0,97,79,58,30.05,29.92,3,0,8,0.00
2013-6-23,91.9,82.5,72.4,78.0,74.5,71.0,96,78,58,30.01,29.91,4,1,10,0.00
2013-6-24,92.1,82.6,74.4,78.0,75.2,73.0,94,79,59,30.05,29.94,9,1,11,0.01
2013-6-25,93.0,83.4,75.2,78.0,75.7,74.0,96,79,57,30.02,29.89,6,1,12,0.00
2013-6-26,94.7,84.6,75.5,78.0,75.3,73.0,96,75,52,29.99,29.87,9,2,11,0.00
2013-6-27,94.9,84.0,73.8,78.0,74.5,71.0,96,75,47,30.01,29.87,7,1,10,0.00
2013-6-28,96.6,85.3,75.1,78.0,75.1,72.0,91,73,50,29.93,29.73,7,2,9,0.00
2013-6-29,100.0,87.8,77.4,78.0,72.7,68.0,88,64,38,29.78,29.69,6,1,11,0.00
2013-6-30,93.9,82.7,66.1,71.0,64.0,59.0,89,57,31,29.82,29.75,8,2,13,0.00
2013-7-1,88.8,78.2,65.1,67.0,63.4,61.0,88,62,41,29.92,29.83,6,1,10,0.00
2013-7-2,90.3,77.4,64.5,70.0,65.1,62.0,93,68,40,29.99,29.90,5,1,14,0.00
2013-7-3,90.0,79.0,66.0,74.0,65.7,61.0,94,67,39,30.01,29.90,7,1,9,0.00
2013-7-4,91.4,80.5,67.3,71.0,66.0,61.0,93,64,36,29.98,29.88,6,1,9,0.00
2013-7-5,93.5,81.6,67.1,73.0,65.9,61.0,91,62,36,29.96,29.85,8,1,13,0.00
2013-7-6,93.9,80.5,70.8,75.0,70.9,66.0,95,75,42,29.94,29.84,11,1,11,0.00
2013-7-7,90.9,80.4,74.6,78.0,74.8,72.0,94,83,60,29.98,29.90,6,1,12,0.07
2013-7-8,92.1,80.0,72.3,77.0,74.3,71.0,97,84,56,30.12,29.99,10,1,17,0.21
2013-7-9,95.3,84.1,73.0,78.0,74.4,71.0,97,75,46,30.13,29.99,7,1,10,0.01
2013-7-10,96.2,85.4,73.9,78.0,74.6,72.0,96,72,46,30.06,29.89,6,1,10,0.00
2013-7-11,93.1,83.1,76.4,78.0,75.2,74.0,91,78,56,29.97,29.86,6,2,10,0.00
2013-7-12,97.8,85.0,74.3,79.0,73.9,70.0,94,72,43,29.94,29.82,5,1,10,0.00
2013-7-13,96.1,85.9,76.9,75.0,65.6,53.0,82,54,23,29.95,29.83,5,1,9,0.00
2013-7-14,87.1,79.5,72.1,73.0,69.4,65.0,89,72,60,29.94,29.85,8,1,8,0.01
2013-7-15,87.6,76.6,70.5,78.0,72.3,68.0,95,87,68,30.06,29.89,9,1,14,0.15
2013-7-16,93.0,78.3,71.4,76.0,73.6,70.0,97,87,49,30.13,30.01,6,1,18,0.11
2013-7-17,90.5,80.4,73.9,77.0,74.6,73.0,97,84,58,30.19,30.07,7,1,12,0.19
2013-7-18,93.5,81.3,71.8,78.0,72.7,67.0,98,77,48,30.13,29.95,5,1,11,0.01
2013-7-19,86.7,77.3,71.7,74.0,71.3,69.0,93,82,60,30.06,29.91,4,1,7,0.03
2013-7-20,91.9,77.4,68.2,76.0,71.0,67.0,97,82,48,29.96,29.86,4,0,9,0.00
2013-7-21,91.2,79.2,71.6,78.0,74.0,70.0,97,85,59,29.95,29.88,10,2,16,0.04
2013-7-22,96.0,84.9,75.9,79.0,76.1,73.0,96,77,51,29.99,29.89,10,2,16,0.00
2013-7-23,96.7,85.1,76.5,78.0,74.7,70.0,95,74,43,30.00,29.83,13,3,18,0.00
2013-7-24,95.2,83.9,75.7,78.0,74.8,73.0,93,76,52,29.98,29.84,10,2,16,0.01
2013-7-25,95.0,84.3,73.8,78.0,74.2,72.0,95,73,50,30.01,29.91,11,1,13,0.00
2013-7-26,94.9,85.2,76.4,77.0,74.9,71.0,94,73,49,30.01,29.85,8,2,13,0.00
2013-7-27,86.9,80.2,75.0,77.0,74.2,71.0,96,82,62,29.92,29.85,7,2,12,0.20
2013-7-28,92.9,81.1,70.3,76.0,73.0,69.0,96,78,50,29.95,29.87,7,1,10,0.00
2013-7-29,96.6,84.3,74.2,78.0,74.0,69.0,96,74,48,30.04,29.95,10,2,15,0.00
2013-7-30,96.8,84.3,74.3,77.0,72.4,68.0,96,71,40,30.11,29.97,7,2,14,0.00
2013-7-31,97.5,85.4,73.9,76.0,72.5,65.0,96,69,35,30.07,29.89,8,2,11,0.00
2013-8-1,99.2,87.5,76.0,78.0,75.2,72.0,91,69,42,30.00,29.85,6,2,16,0.00
2013-8-2,98.5,87.2,75.7,77.0,74.1,69.0,94,68,39,29.95,29.86,7,1,11,0.00
2013-8-3,97.0,86.8,75.6,77.0,74.5,71.0,95,69,45,30.01,29.93,8,2,12,0.00
2013-8-4,97.5,87.0,76.3,79.0,75.7,72.0,95,71,48,30.07,29.91,6,1,10,0.00
2013-8-5,100.5,86.9,76.1,77.0,73.8,68.0,94,68,35,30.01,29.85,9,2,13,0.00
2013-8-6,101.1,88.3,76.1,78.0,74.5,70.0,93,67,37,29.94,29.80,12,3,15,0.00
2013-8-7,102.0,89.3,76.5,77.0,73.8,66.0,95,64,31,29.92,29.77,8,2,13,0.00
2013-8-8,100.7,87.1,75.3,76.0,73.0,68.0,94,67,35,29.91,29.79,10,2,11,0.00
2013-8-9,99.0,86.6,73.0,77.0,74.2,71.0,96,69,42,29.94,29.82,9,1,10,0.00
2013-8-10,99.4,84.8,76.0,80.0,75.5,72.0,92,75,46,30.02,29.91,5,1,13,0.00
2013-8-11,97.3,83.4,72.1,79.0,73.6,70.0,96,74,43,30.05,29.95,8,1,13,0.00
2013-8-12,99.3,85.8,74.5,79.0,73.7,71.0,96,70,41,30.05,29.90,6,2,13,0.02
2013-8-13,100.9,88.1,76.9,78.0,74.3,70.0,93,67,38,30.00,29.84,6,2,13,0.00
2013-8-14,92.7,81.9,76.7,77.0,75.5,73.0,91,81,58,29.97,29.87,10,2,15,0.04
2013-8-15,90.5,80.1,70.7,75.0,68.0,63.0,94,68,44,30.01,29.88,5,1,11,0.00
2013-8-16,93.3,81.0,69.2,70.0,66.3,64.0,86,63,41,29.99,29.88,7,2,13,0.00
2013-8-17,91.1,79.6,69.2,67.0,63.4,60.0,84,60,36,30.00,29.89,7,2,13,0.00
2013-8-18,93.5,81.3,69.4,73.0,67.2,64.0,94,65,40,30.01,29.92,8,1,12,0.00
2013-8-19,94.6,81.6,69.0,72.0,65.5,59.0,90,61,33,30.03,29.89,6,1,9,0.00
2013-8-20,96.6,82.6,69.0,74.0,67.6,59.0,92,64,30,30.01,29.91,8,1,14,0.00
2013-8-21,97.7,83.6,71.9,77.0,69.8,64.0,95,67,35,30.07,29.94,7,1,12,0.00
2013-8-22,97.1,85.2,73.5,77.0,71.9,69.0,92,66,41,30.06,29.90,8,1,13,0.00
2013-8-23,99.4,86.3,73.4,77.0,72.1,70.0,92,65,39,29.99,29.84,4,1,12,0.00
2013-8-24,98.9,87.0,75.8,77.0,72.1,68.0,93,64,37,30.02,29.92,10,2,16,0.00
2013-8-25,95.6,84.1,75.8,75.0,72.2,70.0,86,69,46,30.10,30.00,15,2,15,0.00
2013-8-26,90.2,78.9,72.2,76.0,72.9,70.0,94,82,56,30.13,30.05,8,2,16,0.17
2013-8-27,93.1,80.3,70.1,76.0,70.9,69.0,97,76,48,30.11,29.98,5,0,8,0.01
2013-8-28,98.3,85.5,74.0,74.0,70.1,67.0,90,63,37,30.05,29.92,4,0,9,0.00
2013-8-29,100.1,87.4,76.8,75.0,70.2,66.0,81,59,34,30.03,29.89,7,1,9,0.00
2013-8-30,97.9,86.9,76.2,78.0,73.3,70.0,94,67,41,29.98,29.83,7,2,12,0.00
2013-8-31,98.8,86.2,73.9,76.0,72.0,69.0,92,65,41,29.92,29.77,8,2,13,0.00
2013-9-1,98.5,86.0,73.1,75.0,71.0,68.0,92,64,38,29.91,29.76,7,2,14,0.00
2013-9-2,81.8,79.5,77.6,74.0,73.9,73.0,87,82,75,29.86,29.84,5,2,7,0.00
2013-9-6,95.9,79.8,77.3,74.0,51.3,-99.9,76,54,42,29.96,29.91,5,-73,9,0.00
2013-9-7,95.3,80.8,71.2,78.0,72.2,69.0,94,77,47,30.02,29.90,6,1,11,0.00
2013-9-8,95.6,79.4,68.6,77.0,65.9,-99.9,96,70,38,29.98,29.86,7,-30,15,0.00
2013-9-9,94.4,81.9,70.0,76.0,70.0,65.0,96,71,39,30.00,29.91,7,1,16,0.00
2013-9-10,93.4,82.2,70.6,76.0,70.0,66.0,96,70,42,30.06,29.96,8,1,13,0.00
2013-9-11,95.0,82.2,71.5,75.0,70.8,69.0,93,70,44,30.08,29.96,10,1,12,0.00
2013-9-12,94.3,80.5,70.1,76.0,69.6,66.0,93,71,41,30.03,29.86,7,1,11,0.00
2013-9-13,97.6,84.6,71.3,73.0,69.2,66.0,91,63,36,29.92,29.75,6,1,13,0.00
2013-9-14,94.3,83.1,74.5,72.0,67.0,62.0,83,60,41,29.94,29.82,7,2,11,0.00
2013-9-15,96.1,83.8,73.7,71.0,67.7,64.0,80,60,39,30.00,29.90,6,2,14,0.00
2013-9-16,97.8,91.2,81.4,75.0,66.1,61.0,71,45,30,30.04,29.92,4,1,12,0.00
2013-9-17,96.1,84.0,72.0,76.0,70.2,67.0,93,66,40,30.05,29.89,6,1,14,0.00
2013-9-18,97.6,84.3,71.7,76.0,70.6,67.0,91,66,38,29.99,29.86,10,2,18,0.00
2013-9-19,93.1,80.8,75.0,77.0,74.1,71.0,92,81,54,29.96,29.84,9,1,12,0.06
2013-9-20,78.6,74.9,71.5,76.0,73.4,70.0,97,95,89,29.89,29.72,8,1,10,3.13
2013-9-21,81.2,73.7,70.3,71.0,67.7,60.0,97,82,62,29.84,29.75,11,4,16,0.02
2013-9-22,83.6,72.0,62.4,60.0,56.7,50.0,83,61,32,29.86,29.74,10,2,13,0.00
2013-9-23,87.7,75.2,65.5,69.0,63.2,57.0,83,68,49,29.83,29.72,6,1,10,0.00
2013-9-24,92.0,80.4,69.4,75.0,69.0,64.0,89,70,41,29.84,29.76,8,1,12,0.00
2013-9-25,92.3,75.3,61.7,68.0,60.3,53.0,96,65,26,29.85,29.75,7,1,9,0.00
2013-9-26,91.8,74.6,59.3,71.0,61.7,57.0,94,68,32,29.91,29.80,8,0,9,0.00
2013-9-27,89.7,77.5,64.8,75.0,68.0,63.0,97,74,51,29.96,29.87,9,1,11,0.00
2013-9-28,88.6,79.7,69.2,74.0,71.3,67.0,95,76,61,29.98,29.88,6,1,11,0.00
2013-9-29,78.2,74.2,71.8,74.0,72.5,71.0,97,94,78,29.98,29.88,6,1,8,3.37
2013-9-30,83.9,75.0,70.8,75.0,72.1,70.0,98,91,71,29.89,29.80,4,0,8,0.08
2013-10-1,89.3,76.9,71.8,77.0,73.3,70.0,97,89,61,29.94,29.86,7,1,21,0.09
2013-10-2,86.0,77.1,72.2,76.0,73.0,71.0,97,88,67,29.99,29.88,5,1,10,0.01
2013-10-3,87.0,78.3,71.4,77.0,73.3,70.0,97,85,65,29.95,29.85,7,1,10,0.00
2013-10-4,88.8,77.9,70.8,78.0,73.8,69.0,97,87,66,29.94,29.85,6,0,11,0.00
2013-10-5,87.2,78.5,67.9,78.0,73.8,62.0,96,86,70,29.96,29.81,8,1,16,0.01
2013-10-6,77.1,67.0,57.3,61.0,50.3,42.0,80,57,30,30.06,29.92,11,2,12,0.00
2013-10-7,78.1,62.7,49.0,55.0,48.8,44.0,91,64,31,30.11,29.99,6,1,9,0.00
2013-10-8,75.6,62.0,50.4,59.0,54.1,49.0,95,77,50,30.09,29.98,5,0,8,0.00
2013-10-9,78.2,64.2,51.9,61.0,56.0,51.0,96,78,46,30.08,29.98,6,1,8,0.01
2013-10-10,80.5,65.1,53.4,66.0,59.4,52.0,96,83,58,30.07,29.93,5,0,9,0.00
2013-10-11,84.7,73.6,61.1,72.0,67.6,60.0,96,83,59,29.96,29.87,5,1,10,0.01
2013-10-12,88.4,75.7,70.1,77.0,72.7,69.0,97,91,64,30.07,29.90,5,1,17,0.18
2013-10-13,77.2,72.2,68.7,71.0,69.4,68.0,97,91,78,30.16,30.02,5,1,10,0.01
2013-10-14,82.7,74.9,70.9,73.0,70.5,68.0,95,87,61,30.10,29.96,5,1,8,0.00
2013-10-15,84.7,75.8,70.7,74.0,71.4,70.0,97,87,67,29.97,29.86,7,1,10,0.00
2013-10-16,74.6,69.1,63.4,72.0,67.4,62.0,96,94,89,29.98,29.86,5,1,8,0.12
2013-10-17,71.8,63.2,52.0,62.0,56.3,51.0,96,80,49,30.07,29.96,6,2,11,0.00
2013-10-18,70.7,60.3,51.2,61.0,56.5,50.0,96,88,68,30.03,29.90,5,0,11,0.01
2013-10-19,67.1,59.4,45.7,59.0,52.0,43.0,96,79,46,30.10,29.93,8,2,12,0.00
2013-10-20,70.1,54.8,41.0,55.0,48.2,40.0,96,80,54,30.09,29.94,5,0,8,0.01
2013-10-21,76.8,63.5,50.9,68.0,59.0,49.0,95,86,68,30.00,29.91,4,1,8,0.00
2013-10-22,70.6,62.4,50.4,64.0,56.9,48.0,97,83,53,30.08,29.97,9,1,12,0.00
2013-10-23,78.4,60.3,46.5,57.0,50.3,45.0,96,73,35,30.12,30.05,4,0,7,0.01
2013-10-24,81.6,64.7,49.9,59.0,53.3,48.0,93,71,36,30.21,30.09,3,0,7,0.00
2013-10-25,68.5,60.9,53.7,58.0,50.0,44.0,92,68,52,30.39,30.22,8,2,14,0.00
2013-10-26,78.2,62.0,45.9,61.0,53.3,42.0,91,75,51,30.27,30.07,6,1,11,0.00
2013-10-27,73.1,65.1,58.7,65.0,60.7,57.0,96,86,69,30.15,29.99,5,1,12,0.52
2013-10-28,76.9,66.4,56.4,68.0,62.6,55.0,97,88,72,30.13,30.01,5,1,8,0.01
2013-10-29,81.5,72.3,66.9,71.0,67.8,66.0,97,86,67,30.13,30.03,6,1,12,0.00
2013-10-30,73.5,69.8,68.0,73.0,68.3,67.0,98,95,90,30.08,29.83,6,1,15,1.42
2013-10-31,74.9,69.3,54.2,74.0,67.5,52.0,97,94,86,29.86,29.68,8,2,20,1.07
2013-11-1,74.1,60.2,47.1,61.0,53.9,46.0,98,82,51,29.97,29.81,7,1,14,0.01
2013-11-2,69.6,61.7,50.3,58.0,47.7,39.0,93,63,35,30.21,29.96,7,2,17,0.00
2013-11-3,64.3,52.1,41.4,49.0,44.6,40.0,96,78,49,30.24,30.09,6,1,13,0.00
2013-11-4,72.5,62.1,48.3,62.0,55.2,46.0,91,78,65,30.13,30.03,5,1,9,0.00
2013-11-5,77.0,69.8,64.0,69.0,65.0,59.0,92,85,73,30.07,29.97,6,1,11,0.00
2013-11-6,76.2,65.3,50.6,72.0,62.3,45.0,95,90,82,30.26,29.99,10,2,17,0.16
2013-11-7,62.0,52.9,43.8,45.0,42.7,39.0,89,70,44,30.41,30.26,14,4,18,0.00
2013-11-8,63.4,53.6,45.8,50.0,46.2,42.0,95,78,46,30.37,30.17,7,1,10,0.00
2013-11-9,62.5,55.2,50.1,53.0,49.5,47.0,91,82,59,30.23,30.16,4,0,6,0.00
2013-11-10,69.2,57.2,48.1,55.0,50.9,46.0,94,80,60,30.31,30.20,4,0,8,0.00
2013-11-11,70.0,56.1,45.2,58.0,50.7,44.0,97,83,55,30.27,30.14,3,0,5,0.01
2013-11-12,63.1,52.6,46.9,57.0,48.6,39.0,97,86,73,30.55,30.22,14,3,18,0.01
2013-11-14,57.8,49.2,41.4,46.0,40.9,38.0,88,74,48,30.16,30.09,4,0,5,0.00
2013-11-15,71.3,59.0,43.0,65.0,55.8,39.0,96,89,74,30.10,29.90,3,0,7,0.04
2013-11-16,76.7,67.1,55.1,72.0,65.3,54.0,98,94,84,29.95,29.79,8,1,12,0.02
2013-11-17,83.0,74.9,68.4,75.0,72.0,67.0,97,91,75,29.93,29.77,9,2,17,0.45
2013-11-18,74.8,66.8,57.4,68.0,53.3,44.0,97,65,37,30.14,29.92,7,2,12,0.01
2013-11-19,64.5,56.6,46.8,45.0,42.3,38.0,83,60,41,30.17,30.05,9,2,15,0.00
2013-11-20,70.3,55.2,42.4,54.0,44.3,37.0,89,69,44,30.08,29.95,6,0,9,0.00
2013-11-21,75.0,67.8,54.0,69.0,63.9,51.0,94,87,78,30.08,29.99,8,1,14,0.00
2013-11-22,70.6,58.4,47.1,69.0,57.0,46.0,96,95,93,30.27,30.05,5,2,12,0.48
2013-11-23,50.0,46.1,42.5,49.0,43.7,35.0,97,91,73,30.45,30.25,11,4,17,0.22
2013-11-24,46.7,41.4,37.2,35.0,31.0,26.0,89,68,51,30.49,30.32,13,4,18,0.08
2013-11-25,40.1,38.0,36.0,39.0,36.3,34.0,96,93,87,30.31,30.00,13,3,18,1.49
2013-11-26,41.3,39.6,38.2,40.0,38.3,37.0,96,95,85,30.23,29.99,8,2,13,0.73
2013-11-27,46.5,38.3,28.9,37.0,31.0,27.0,92,76,51,30.41,30.23,8,2,13,0.00
2013-11-28,49.0,36.4,28.0,37.0,30.9,26.0,95,82,56,30.49,30.37,5,1,9,0.01
2013-11-29,55.6,40.2,28.3,41.0,33.1,26.0,97,79,33,30.53,30.39,5,0,9,0.01
2013-11-30,61.4,47.4,32.2,53.0,43.3,30.0,97,86,68,30.41,30.21,2,0,7,0.00
2013-12-1,65.9,58.3,52.2,58.0,53.9,48.0,93,85,74,30.24,29.94,5,1,11,0.00
2013-12-2,71.8,61.4,53.6,62.0,58.3,53.0,97,90,70,29.93,29.65,5,1,10,0.00
2013-12-3,78.3,66.6,55.7,66.0,61.7,55.0,98,85,59,29.68,29.57,9,3,15,0.01
2013-12-4,78.1,70.7,64.4,69.0,66.8,63.0,95,88,74,29.79,29.67,9,2,15,0.00
2013-12-5,71.2,56.3,40.8,70.0,53.1,39.0,97,89,78,30.04,29.78,8,2,13,0.00
2013-12-6,42.0,39.7,35.9,40.0,37.8,33.0,95,93,89,30.37,29.98,12,3,16,0.17
2013-12-7,36.1,34.7,33.2,33.0,31.2,30.0,91,87,83,30.42,30.26,10,3,16,0.00
2013-12-8,42.6,38.8,34.4,40.0,36.0,31.0,93,89,86,30.26,30.06,3,0,6,0.00
2013-12-9,42.2,40.3,37.8,41.0,38.9,36.0,96,94,92,30.31,30.08,8,2,13,0.07
2013-12-10,41.8,36.2,29.6,36.0,31.7,28.0,94,84,69,30.46,30.30,13,2,14,0.00
2013-12-11,49.7,36.6,28.3,41.0,32.6,27.0,96,86,70,30.52,30.35,7,1,10,0.01
2013-12-12,50.3,40.1,33.6,37.0,33.7,30.0,92,79,53,30.58,30.36,6,1,12,0.00
2013-12-13,53.9,44.7,34.7,53.0,41.3,33.0,97,88,69,30.36,29.86,4,1,11,0.46
2013-12-14,53.6,49.0,40.3,53.0,45.9,34.0,97,89,76,30.26,29.82,7,2,17,0.00
2013-12-15,51.4,39.9,31.8,40.0,33.3,30.0,92,78,53,30.36,30.25,5,1,10,0.00
2013-12-16,61.4,42.0,28.5,44.0,34.9,27.0,96,79,43,30.34,30.20,6,1,8,0.01
2013-12-17,67.2,47.6,33.7,49.0,40.3,32.0,96,79,44,30.33,30.22,4,0,9,0.01
2013-12-18,68.3,49.9,34.8,51.0,42.9,33.0,96,79,44,30.32,30.12,5,0,8,0.00
2013-12-19,72.6,60.8,49.4,64.0,57.1,48.0,95,87,73,30.12,29.88,8,2,14,0.01
2013-12-20,76.9,71.3,66.8,70.0,68.0,65.0,94,89,78,29.89,29.73,9,2,17,0.03
2013-12-21,72.4,65.0,52.7,71.0,63.4,52.0,97,94,88,29.80,29.47,14,3,22,1.60
2013-12-22,55.9,49.4,36.5,55.0,46.3,32.0,98,89,79,30.32,29.77,8,2,14,0.00
2013-12-23,48.4,38.0,30.5,35.0,31.9,29.0,94,80,54,30.53,30.32,6,2,11,0.00
2013-12-24,50.9,37.1,27.6,37.0,31.5,26.0,96,82,42,30.57,30.34,7,1,10,0.01
2013-12-25,57.4,42.9,29.0,44.0,36.2,28.0,96,79,48,30.39,30.29,5,0,9,0.01
2013-12-26,57.6,46.6,38.2,45.0,41.0,37.0,95,82,50,30.42,30.29,3,0,8,0.00
2013-12-27,54.8,45.4,39.0,42.0,39.2,33.0,96,81,45,30.46,30.32,5,0,9,0.00
2013-12-28,54.4,45.5,40.1,42.0,39.5,36.0,94,81,51,30.32,30.02,2,0,4,0.00
2013-12-29,61.6,47.5,34.8,46.0,40.1,34.0,96,78,45,30.17,30.00,5,0,9,0.00
2013-12-30,47.6,41.4,38.8,40.0,34.6,33.0,81,77,73,30.39,30.15,7,2,10,0.00
2013-12-31,46.1,40.2,36.4,38.0,35.5,33.0,90,83,68,30.45,30.27,4,1,8,0.00
2014-1-1,61.3,49.7,36.2,55.0,46.4,34.0,95,88,76,30.27,30.00,7,1,11,0.00
2014-1-2,56.4,44.3,34.8,55.0,33.0,25.0,94,66,44,30.44,30.03,14,3,16,0.00